{"data":{"norad_id":51132,"epoch":"2026-05-25T04:23:59.743968Z","epoch_age_seconds":73269,"freshness":"FRESH","line1":"1 51132U 22005AE  26145.18333037  .00000298  00000+0  36810-4 0  9997","line2":"2 51132  53.2145 315.7281 0001516  87.6245 272.4921 15.08835844240274","mean_motion":15.08835844,"eccentricity":0.0001516,"inclination_deg":53.2145,"raan_deg":315.7281,"arg_perigee_deg":87.6245,"mean_anomaly_deg":272.4921,"bstar":3.681e-5,"rev_number":24027,"period_min":95.437817554923,"perigee_km":538.70733962985,"apogee_km":540.80484481541,"semimajor_km":6917.8930922226,"source":"CELESTRAK","updated_at":"2026-05-25T13:38:16.912723Z"}}